Location: Chateh
(58.6667°N, 118.6000°W)
Time: 10:41:17
(UTC+00:00)

PCSat - Pass Details

Date: 06 December 2023
Orbit: 784 x 791 km, 67.0° (Epoch: 01 March)

Event Time Altitude Azimuth Distance (km) Brightness Sun altitude
Exits shadow 13:38:45 33° 246° (WSW) 1,309 10.3 -19.9°
Maximum altitude 13:41:13 72° 322° (NW) 835 9.5 -19.6°
Drops below altitude 10° 13:46:39 10° 48° (NE) 2,364 12.5 -18.9°
Sets 13:49:05 0° 50° (NE) 3,297 13.3 -18.6°
